{"data":{"norad_id":62255,"epoch":"2026-05-25T03:12:20.194848Z","epoch_age_seconds":60621,"freshness":"FRESH","line1":"1 62255U 24232U   26145.13356707  .00000094  00000+0  12757-3 0  9990","line2":"2 62255  89.0094  24.4632 0003837 102.1538 258.0043 13.51008000121479","mean_motion":13.51008,"eccentricity":0.0003837,"inclination_deg":89.0094,"raan_deg":24.4632,"arg_perigee_deg":102.1538,"mean_anomaly_deg":258.0043,"bstar":0.00012757,"rev_number":12147,"period_min":106.5870816457,"perigee_km":1065.6948933895,"apogee_km":1071.4094826723,"semimajor_km":7446.6891880309,"source":"CELESTRAK","updated_at":"2026-05-25T13:38:02.870105Z"}}